OMD275 ENCN-ENBR

Flight info

Callsign OMD275
Flight time 0h 38m
Altitude 32000
Route BEDIK DCT BADAB
Aircraft B736/M-SDE2E3FGHIRWXY/LB1

Departure

Time 2026-04-27 18:52
Airport Kristiansand Airport (ENCN)

Arrival

Time 2026-04-27 19:30
Airport Bergen Airport, Flesland (ENBR)
Time Latitude Longitude Altitude Speed Heading
2026-04-27 18:33 58.20216 8.07528 59 ft 0 kts 301°
2026-04-27 18:46 58.20216 8.07526 65 ft 1 kts 296°
2026-04-27 18:46 58.20206 8.07517 65 ft 3 kts 171°
2026-04-27 18:47 58.20219 8.07623 59 ft 14 kts 54°
2026-04-27 18:47 58.20303 8.07751 62 ft 17 kts 42°
2026-04-27 18:47 58.20386 8.07940 63 ft 20 kts 52°
2026-04-27 18:47 58.20463 8.08128 61 ft 12 kts 53°
2026-04-27 18:48 58.20468 8.08275 63 ft 12 kts 121°
2026-04-27 18:48 58.20419 8.08418 63 ft 13 kts 113°
2026-04-27 18:48 58.20448 8.08575 62 ft 16 kts 40°
2026-04-27 18:48 58.20546 8.08708 65 ft 19 kts 35°
2026-04-27 18:49 58.20658 8.08857 65 ft 20 kts 35°
2026-04-27 18:49 58.20771 8.09012 60 ft 20 kts 36°
2026-04-27 18:49 58.20885 8.09166 66 ft 21 kts 35°
2026-04-27 18:49 58.21012 8.09333 60 ft 23 kts 35°
2026-04-27 18:50 58.21088 8.09455 63 ft 13 kts 58°
2026-04-27 18:50 58.21139 8.09531 65 ft 5 kts 322°
2026-04-27 18:50 58.21132 8.09486 60 ft 5 kts 215°
2026-04-27 18:50 58.21119 8.09469 61 ft 0 kts 215°
2026-04-27 18:51 58.21111 8.09459 59 ft 13 kts 215°
2026-04-27 18:51 58.20764 8.08995 68 ft 108 kts 215°
2026-04-27 18:52 58.20007 8.07988 562 ft 136 kts 215°
2026-04-27 18:52 58.19266 8.06988 1650 ft 131 kts 216°
2026-04-27 18:52 58.18482 8.06030 2469 ft 138 kts 210°
2026-04-27 18:53 58.16244 8.04170 3338 ft 217 kts 198°
2026-04-27 18:53 58.14686 8.03283 3836 ft 245 kts 196°
2026-04-27 18:53 58.13027 8.02365 4621 ft 252 kts 195°
2026-04-27 18:53 58.11352 8.01411 4973 ft 253 kts 199°
2026-04-27 18:54 58.09885 7.99586 5010 ft 257 kts 230°
2026-04-27 18:54 58.09153 7.96549 5007 ft 262 kts 264°
2026-04-27 18:54 58.09392 7.93086 5232 ft 275 kts 290°
2026-04-27 18:54 58.10077 7.89720 6455 ft 275 kts 296°
2026-04-27 18:55 58.11247 7.86908 7629 ft 274 kts 326°
2026-04-27 18:55 58.12966 7.85518 8857 ft 270 kts 352°
2026-04-27 18:55 58.14832 7.85629 10036 ft 272 kts 14°
2026-04-27 18:55 58.16647 7.86709 11075 ft 276 kts 19°
2026-04-27 18:56 58.18471 7.87936 12089 ft 280 kts 21°
2026-04-27 18:56 58.20203 7.89677 13099 ft 285 kts 34°
2026-04-27 18:56 58.21822 7.91885 14139 ft 289 kts 36°
2026-04-27 18:56 58.23458 7.94145 15041 ft 293 kts 35°
2026-04-27 18:57 58.25130 7.96431 15907 ft 299 kts 34°
2026-04-27 18:57 58.26880 7.98791 16324 ft 322 kts 34°
2026-04-27 18:57 58.28780 8.01336 16619 ft 344 kts 34°
2026-04-27 18:57 58.30815 8.03851 17312 ft 352 kts 25°
2026-04-27 18:58 58.33179 8.05037 18245 ft 354 kts
2026-04-27 18:58 58.34808 8.04927 18848 ft 357 kts 352°
2026-04-27 18:58 58.37909 8.02632 19891 ft 365 kts 328°
2026-04-27 18:58 58.39754 7.99347 20621 ft 373 kts 310°
2026-04-27 18:59 58.41282 7.95314 21398 ft 377 kts 307°
2026-04-27 18:59 58.42754 7.91145 22069 ft 381 kts 306°
2026-04-27 18:59 58.44228 7.86877 22366 ft 380 kts 306°
2026-04-27 18:59 58.45680 7.82664 22367 ft 379 kts 306°
2026-04-27 19:00 58.47107 7.78547 22376 ft 375 kts 306°
2026-04-27 19:00 58.48554 7.74395 22394 ft 376 kts 306°
2026-04-27 19:00 58.50014 7.70224 22392 ft 377 kts 306°
2026-04-27 19:00 58.51476 7.66057 22392 ft 377 kts 306°
2026-04-27 19:01 58.52443 7.63301 22392 ft 378 kts 306°
2026-04-27 19:01 58.54402 7.57719 22389 ft 378 kts 306°
2026-04-27 19:01 58.55373 7.54949 22389 ft 378 kts 306°
2026-04-27 19:01 58.56837 7.50769 22374 ft 378 kts 306°
2026-04-27 19:02 58.58299 7.46587 22376 ft 377 kts 306°
2026-04-27 19:02 58.59759 7.42406 22383 ft 377 kts 306°
2026-04-27 19:02 58.61219 7.38215 22391 ft 377 kts 306°
2026-04-27 19:02 58.62672 7.34038 22390 ft 377 kts 306°
2026-04-27 19:03 58.64128 7.29846 22387 ft 377 kts 306°
2026-04-27 19:03 58.65583 7.25649 22400 ft 377 kts 306°
2026-04-27 19:03 58.67036 7.21448 22402 ft 378 kts 306°
2026-04-27 19:03 58.67999 7.18661 22398 ft 378 kts 306°
2026-04-27 19:04 58.69940 7.13034 22393 ft 378 kts 306°
2026-04-27 19:04 58.71389 7.08823 22397 ft 377 kts 306°
2026-04-27 19:04 58.72837 7.04609 22403 ft 377 kts 306°
2026-04-27 19:04 58.74284 7.00390 22398 ft 378 kts 306°
2026-04-27 19:05 58.75729 6.96168 22404 ft 377 kts 306°
2026-04-27 19:05 58.77173 6.91944 22394 ft 378 kts 306°
2026-04-27 19:05 58.78618 6.87711 22403 ft 378 kts 306°
2026-04-27 19:05 58.80063 6.83465 22401 ft 379 kts 306°
2026-04-27 19:06 58.81509 6.79210 22416 ft 379 kts 306°
2026-04-27 19:06 58.82955 6.74945 22412 ft 380 kts 306°
2026-04-27 19:06 58.84403 6.70669 22412 ft 381 kts 306°
2026-04-27 19:06 58.85850 6.66387 22410 ft 381 kts 306°
2026-04-27 19:07 58.87294 6.62107 22410 ft 380 kts 306°
2026-04-27 19:07 58.88729 6.57846 22414 ft 378 kts 306°
2026-04-27 19:07 58.90162 6.53584 22414 ft 377 kts 306°
2026-04-27 19:07 58.91589 6.49330 22423 ft 376 kts 306°
2026-04-27 19:08 58.93016 6.45071 22419 ft 376 kts 306°
2026-04-27 19:08 58.94414 6.40889 22421 ft 376 kts 306°
2026-04-27 19:08 58.95851 6.36586 22417 ft 375 kts 306°
2026-04-27 19:08 58.97267 6.32336 22411 ft 375 kts 306°
2026-04-27 19:09 58.98663 6.28138 22417 ft 376 kts 306°
2026-04-27 19:09 59.00078 6.23874 22425 ft 376 kts 306°
2026-04-27 19:09 59.01495 6.19599 22418 ft 377 kts 306°
2026-04-27 19:09 59.02913 6.15315 22427 ft 377 kts 306°
2026-04-27 19:10 59.04332 6.11020 22423 ft 378 kts 306°
2026-04-27 19:10 59.05767 6.06741 22415 ft 377 kts 309°
2026-04-27 19:10 59.07631 6.03276 22431 ft 370 kts 329°
2026-04-27 19:10 59.09157 6.01682 22426 ft 367 kts 340°
2026-04-27 19:11 59.12418 6.00071 22426 ft 365 kts 351°
2026-04-27 19:11 59.14930 5.99244 22418 ft 365 kts 353°
2026-04-27 19:11 59.17429 5.98545 22402 ft 357 kts 353°
2026-04-27 19:11 59.19850 5.97902 22189 ft 346 kts 353°
2026-04-27 19:12 59.22197 5.97278 21922 ft 336 kts 353°
2026-04-27 19:12 59.24486 5.96661 21644 ft 328 kts 353°
2026-04-27 19:12 59.26721 5.96048 21378 ft 320 kts 353°
2026-04-27 19:12 59.28907 5.95443 21123 ft 316 kts 353°
2026-04-27 19:13 59.31077 5.94836 20867 ft 314 kts 353°
2026-04-27 19:13 59.33230 5.94232 20615 ft 311 kts 353°
2026-04-27 19:13 59.35366 5.93629 20364 ft 309 kts 353°
2026-04-27 19:13 59.37488 5.93029 20115 ft 307 kts 353°
2026-04-27 19:14 59.39597 5.92432 19863 ft 305 kts 353°
2026-04-27 19:14 59.41671 5.91843 19624 ft 305 kts 352°
2026-04-27 19:14 59.43781 5.91243 19387 ft 308 kts 352°
2026-04-27 19:14 59.45911 5.90637 19148 ft 310 kts 352°
2026-04-27 19:15 59.48000 5.89620 18875 ft 311 kts 336°
2026-04-27 19:15 59.49727 5.87070 18638 ft 314 kts 313°
2026-04-27 19:15 59.50982 5.83545 18390 ft 315 kts 304°
2026-04-27 19:15 59.52128 5.79814 18110 ft 315 kts 303°
2026-04-27 19:16 59.53240 5.76101 17838 ft 314 kts 303°
2026-04-27 19:16 59.53974 5.73641 17668 ft 314 kts 303°
2026-04-27 19:16 59.55440 5.68722 17314 ft 314 kts 303°
2026-04-27 19:16 59.56541 5.65024 17049 ft 313 kts 303°
2026-04-27 19:17 59.57643 5.61321 16794 ft 313 kts 303°
2026-04-27 19:17 59.58746 5.57621 16537 ft 313 kts 303°
2026-04-27 19:17 59.59849 5.53924 16275 ft 312 kts 303°
2026-04-27 19:17 59.60951 5.50233 16020 ft 311 kts 303°
2026-04-27 19:18 59.62048 5.46562 15765 ft 309 kts 303°
2026-04-27 19:18 59.63135 5.42929 15519 ft 305 kts 303°
2026-04-27 19:18 59.64208 5.39344 15259 ft 301 kts 303°
2026-04-27 19:18 59.65273 5.35787 15009 ft 300 kts 302°
2026-04-27 19:19 59.66336 5.32242 14766 ft 299 kts 302°
2026-04-27 19:19 59.67395 5.28716 14524 ft 298 kts 302°
2026-04-27 19:19 59.68454 5.25193 14283 ft 297 kts 302°
2026-04-27 19:19 59.69512 5.21677 14013 ft 297 kts 302°
2026-04-27 19:20 59.70569 5.18165 13744 ft 297 kts 302°
2026-04-27 19:20 59.71626 5.14655 13470 ft 296 kts 302°
2026-04-27 19:20 59.72681 5.11149 13214 ft 296 kts 302°
2026-04-27 19:20 59.73738 5.07671 12884 ft 292 kts 306°
2026-04-27 19:21 59.75199 5.05083 12675 ft 279 kts 337°
2026-04-27 19:21 59.77062 5.04522 12348 ft 273 kts
2026-04-27 19:21 59.78788 5.06001 11981 ft 272 kts 30°
2026-04-27 19:21 59.80499 5.07577 11582 ft 272 kts 20°
2026-04-27 19:22 59.82304 5.08834 10964 ft 277 kts 18°
2026-04-27 19:22 59.84137 5.10038 10356 ft 278 kts 18°
2026-04-27 19:22 59.85971 5.11237 9680 ft 277 kts 18°
2026-04-27 19:22 59.87796 5.12438 9039 ft 275 kts 18°
2026-04-27 19:23 59.89603 5.13635 8462 ft 272 kts 18°
2026-04-27 19:23 59.91387 5.14824 7900 ft 269 kts 18°
2026-04-27 19:23 59.93151 5.16005 7355 ft 266 kts 18°
2026-04-27 19:23 59.94889 5.17172 6940 ft 263 kts 18°
2026-04-27 19:24 59.96619 5.18337 6545 ft 262 kts 18°
2026-04-27 19:24 59.98325 5.19486 6155 ft 262 kts 19°
2026-04-27 19:24 60.00073 5.20666 5760 ft 261 kts 19°
2026-04-27 19:24 60.01801 5.21835 5298 ft 264 kts 19°
2026-04-27 19:25 60.03505 5.22989 4821 ft 259 kts 20°
2026-04-27 19:25 60.05194 5.24134 4345 ft 254 kts 19°
2026-04-27 19:25 60.06843 5.25253 4036 ft 245 kts 20°
2026-04-27 19:25 60.08418 5.26322 3987 ft 233 kts 19°
2026-04-27 19:26 60.09916 5.27341 3935 ft 222 kts 20°
2026-04-27 19:26 60.11380 5.28091 3828 ft 214 kts 360°
2026-04-27 19:26 60.12872 5.27596 3328 ft 225 kts 348°
2026-04-27 19:26 60.14438 5.26955 2905 ft 231 kts 349°
2026-04-27 19:27 60.15977 5.26372 2599 ft 222 kts 349°
2026-04-27 19:27 60.17466 5.25805 2305 ft 210 kts 350°
2026-04-27 19:27 60.18875 5.25329 2028 ft 199 kts 351°
2026-04-27 19:27 60.20188 5.24892 1784 ft 182 kts 351°
2026-04-27 19:28 60.21319 5.24513 1554 ft 153 kts 350°
2026-04-27 19:28 60.22287 5.24189 1348 ft 132 kts 350°
2026-04-27 19:28 60.23163 5.23884 1096 ft 126 kts 349°
2026-04-27 19:28 60.24012 5.23589 895 ft 120 kts 348°
2026-04-27 19:29 60.24849 5.23308 860 ft 124 kts 352°
2026-04-27 19:29 60.25716 5.23036 698 ft 125 kts 349°
2026-04-27 19:29 60.26576 5.22752 526 ft 125 kts 349°
2026-04-27 19:29 60.27427 5.22458 360 ft 123 kts 348°
2026-04-27 19:30 60.28266 5.22181 188 ft 120 kts 348°
2026-04-27 19:30 60.28983 5.21933 162 ft 80 kts 351°
2026-04-27 19:30 60.29251 5.21849 156 ft 16 kts 351°
2026-04-27 19:30 60.29359 5.21829 154 ft 14 kts 19°
2026-04-27 19:31 60.29390 5.21981 156 ft 9 kts 80°
2026-04-27 19:31 60.29393 5.22013 157 ft 0 kts 81°
2026-04-27 19:32 60.29392 5.22072 158 ft 10 kts 100°
2026-04-27 19:32 60.29333 5.22140 162 ft 11 kts 169°
2026-04-27 19:32 60.29253 5.22163 166 ft 11 kts 173°
2026-04-27 19:33 60.29178 5.22188 169 ft 10 kts 168°
2026-04-27 19:33 60.29133 5.22208 172 ft 10 kts 168°
2026-04-27 19:33 60.29034 5.22244 173 ft 13 kts 171°
2026-04-27 19:33 60.28937 5.22270 170 ft 15 kts 172°
2026-04-27 19:34 60.28836 5.22306 169 ft 14 kts 169°
2026-04-27 19:34 60.28746 5.22340 168 ft 12 kts 170°
2026-04-27 19:34 60.28692 5.22401 168 ft 7 kts 107°
2026-04-27 19:34 60.28704 5.22486 172 ft 11 kts 65°
2026-04-27 19:35 60.28723 5.22637 173 ft 10 kts 83°
2026-04-27 19:35 60.28704 5.22770 172 ft 9 kts 120°
2026-04-27 19:35 60.28697 5.22865 174 ft 6 kts 84°
2026-04-27 19:35 60.28701 5.22921 175 ft 2 kts 82°
2026-04-27 19:36 60.28701 5.22925 175 ft 0 kts 81°